Location: Gwatt
(46.7204°N, 7.6223°E)
Time: 08:37:36
(UTC+00:00)

A-11 Canister half - Visible Passes

Search period start: 24 January 2021 00:00
Search period end: 03 February 2021 00:00
Orbit: 1517 x 1683 km, 47.2° (Epoch: 23 January)

Date Brightness Start Highest point End Pass type
(mag) Time Alt. Az. Time Alt. Az. Time Alt. Az.
24 Jan 10.7 03:53:34 12° SSW 03:53:34 12° SSW 03:54:19 10° S visible
24 Jan 10.5 17:02:17 10° SE 17:05:01 11° ESE 17:07:42 10° ESE visible
24 Jan 9.3 18:59:14 10° SSW 19:07:55 42° SE 19:08:18 42° SE visible
24 Jan 10.3 21:02:44 10° WSW 21:06:32 28° WSW 21:06:32 28° WSW visible
25 Jan 9.4 18:36:29 10° SSW 18:45:06 40° SE 18:47:02 36° ESE visible
25 Jan 9.8 20:39:49 10° WSW 20:45:15 40° WSW 20:45:15 40° WSW visible
26 Jan 9.5 18:13:44 10° SSW 18:22:15 38° SE 18:25:42 29° E visible
26 Jan 9.3 20:16:54 10° WSW 20:23:56 55° SW 20:23:56 55° SW visible
26 Jan 11.2 22:21:57 10° W 22:22:09 11° W 22:22:09 11° W visible
27 Jan 9.6 17:51:01 10° SSW 17:59:25 36° SE 18:04:21 22° E visible
27 Jan 8.9 19:53:59 10° WSW 20:02:34 72° SSW 20:02:34 72° SSW visible
27 Jan 10.8 21:59:01 10° W 22:00:47 17° W 22:00:47 17° W visible
28 Jan 9.7 17:28:18 10° SSW 17:36:34 34° SE 17:42:57 16° E visible
28 Jan 8.8 19:31:06 10° WSW 19:40:34 75° SSE 19:41:10 72° SE visible
28 Jan 10.4 21:36:05 10° W 21:39:23 25° W 21:39:23 25° W visible
29 Jan 9.8 17:05:36 10° SSW 17:13:45 32° SE 17:21:30 11° ENE visible
29 Jan 8.9 19:08:11 10° WSW 19:17:41 73° SSE 19:19:43 57° E visible
29 Jan 10.0 21:13:08 10° W 21:17:56 35° W 21:17:56 35° W visible
30 Jan 8.9 18:45:18 10° WSW 18:54:47 71° SSE 18:58:14 43° E visible
30 Jan 9.6 20:50:12 10° W 20:56:26 48° W 20:56:26 48° W visible
31 Jan 9.0 18:22:24 10° SW 18:31:54 68° SSE 18:36:43 32° E visible
31 Jan 9.1 20:27:15 10° W 20:34:56 64° W 20:34:56 64° W visible
31 Jan 11.1 22:32:24 10° WNW 22:33:08 13° WNW 22:33:08 13° WNW visible
01 Feb 9.1 17:59:31 10° SW 18:09:00 66° SSE 18:15:10 24° ENE visible
01 Feb 8.8 20:04:18 10° W 20:13:23 82° WNW 20:13:23 82° WNW visible
01 Feb 10.8 22:09:28 10° WNW 22:11:34 19° WNW 22:11:34 19° WNW visible
02 Feb 9.2 17:36:38 10° SW 17:46:08 64° SSE 17:53:37 17° ENE visible
02 Feb 8.7 19:41:20 10° W 19:50:55 88° N 19:51:48 77° ENE visible
02 Feb 10.4 21:46:32 10° WNW 21:50:01 26° WNW 21:50:01 26° WNW visible
